contact:dominique.lefevre@mio.osupytheas.fr, maurice.libes@osupytheas.fr, didier.mallarino@osupytheas.fr
Project:EMSO http://www.emso-fr.org/EMSO-France
Depth: 2436.0 m
Title:EMSO Ligure Ouest : Data MII capteur CSTAR
DateTime,Latitude,Longitude,Instrument_Serial,Reference_Counts,Signal_Counts,Corrected_Signal_raw_counts,Calculated_Beam_c_inverse_meters,Internal_thermistor_counts
DateTime,Latitude,Longitude,Instrument_Serial,Reference_Counts,Signal_Counts,Corrected_Signal_raw_counts,Calculated_Beam_c_inverse_meters,Internal_thermistor_counts
2021-07-26T00:01:37,42.805,6.029,CST-1368DR,5356,7415,14846,0.202,551
2021-07-26T00:04:38,42.805,6.029,CST-1368DR,5356,7414,14843,0.203,551
2021-07-26T00:07:40,42.805,6.029,CST-1368DR,5356,7414,14844,0.203,551
2021-07-26T00:10:42,42.805,6.029,CST-1368DR,5356,7415,14846,0.202,551
2021-07-26T00:13:43,42.805,6.029,CST-1368DR,5356,7415,14846,0.202,551
2021-07-26T00:16:45,42.805,6.029,CST-1368DR,5356,7414,14844,0.203,551
2021-07-26T00:19:46,42.805,6.029,CST-1368DR,5356,7414,14844,0.203,551
2021-07-26T00:22:48,42.805,6.029,CST-1368DR,5356,7414,14844,0.203,551
2021-07-26T00:25:50,42.805,6.029,CST-1368DR,5356,7414,14844,0.203,551
2021-07-26T00:28:51,42.805,6.029,CST-1368DR,5356,7412,14840,0.204,551
2021-07-26T00:31:53,42.805,6.029,CST-1368DR,5356,7415,14846,0.202,551
2021-07-26T00:34:54,42.805,6.029,CST-1368DR,5356,7414,14843,0.203,551
2021-07-26T00:37:56,42.805,6.029,CST-1368DR,5356,7414,14844,0.203,551
2021-07-26T00:40:57,42.805,6.029,CST-1368DR,5356,7414,14843,0.203,551
2021-07-26T00:43:59,42.805,6.029,CST-1368DR,5356,7415,14847,0.202,551
2021-07-26T00:47:01,42.805,6.029,CST-1368DR,5356,7414,14843,0.203,551
2021-07-26T00:50:02,42.805,6.029,CST-1368DR,5356,7414,14844,0.203,551
2021-07-26T00:53:04,42.805,6.029,CST-1368DR,5356,7415,14845,0.203,551
2021-07-26T00:56:05,42.805,6.029,CST-1368DR,5356,7416,14848,0.202,551
2021-07-26T00:59:07,42.805,6.029,CST-1368DR,5356,7415,14845,0.203,551
2021-07-26T01:02:09,42.805,6.029,CST-1368DR,5356,7415,14846,0.202,551
2021-07-26T01:05:10,42.805,6.029,CST-1368DR,5356,7415,14845,0.203,551
2021-07-26T01:08:12,42.805,6.029,CST-1368DR,5356,7414,14844,0.203,551
2021-07-26T01:11:13,42.805,6.029,CST-1368DR,5356,7414,14844,0.203,551
2021-07-26T01:14:15,42.805,6.029,CST-1368DR,5356,7413,14842,0.203,551
2021-07-26T01:17:16,42.805,6.029,CST-1368DR,5356,7414,14843,0.203,551
2021-07-26T01:20:18,42.805,6.029,CST-1368DR,5356,7415,14846,0.202,551
2021-07-26T01:23:20,42.805,6.029,CST-1368DR,5356,7415,14846,0.202,551
2021-07-26T01:26:21,42.805,6.029,CST-1368DR,5356,7411,14839,0.204,551
2021-07-26T01:29:23,42.805,6.029,CST-1368DR,5356,7414,14844,0.203,551
2021-07-26T01:32:24,42.805,6.029,CST-1368DR,5356,7414,14843,0.203,551
2021-07-26T01:35:26,42.805,6.029,CST-1368DR,5356,7413,14842,0.203,551
2021-07-26T01:38:27,42.805,6.029,CST-1368DR,5356,7415,14845,0.203,551
2021-07-26T01:41:29,42.805,6.029,CST-1368DR,5356,7415,14846,0.202,551
2021-07-26T01:44:31,42.805,6.029,CST-1368DR,5356,7414,14844,0.203,551
2021-07-26T01:47:32,42.805,6.029,CST-1368DR,5356,7415,14846,0.202,551
2021-07-26T01:50:34,42.805,6.029,CST-1368DR,5356,7415,14846,0.202,551
2021-07-26T01:53:35,42.805,6.029,CST-1368DR,5356,7415,14845,0.203,551
2021-07-26T01:56:37,42.805,6.029,CST-1368DR,5356,7413,14841,0.204,551
2021-07-26T01:59:39,42.805,6.029,CST-1368DR,5356,7414,14844,0.203,551
2021-07-26T02:02:40,42.805,6.029,CST-1368DR,5356,7415,14846,0.202,551
2021-07-26T02:05:42,42.805,6.029,CST-1368DR,5356,7414,14844,0.203,551
2021-07-26T02:08:43,42.805,6.029,CST-1368DR,5356,7413,14842,0.203,551
2021-07-26T02:11:45,42.805,6.029,CST-1368DR,5356,7415,14845,0.203,551
2021-07-26T02:14:46,42.805,6.029,CST-1368DR,5356,7414,14844,0.203,551
2021-07-26T02:17:48,42.805,6.029,CST-1368DR,5356,7415,14845,0.203,551
2021-07-26T02:20:50,42.805,6.029,CST-1368DR,5356,7414,14844,0.203,551
2021-07-26T02:23:51,42.805,6.029,CST-1368DR,5356,7410,14835,0.205,551
2021-07-26T02:26:53,42.805,6.029,CST-1368DR,5356,7413,14841,0.204,551
2021-07-26T02:29:54,42.805,6.029,CST-1368DR,5356,7414,14844,0.203,551
2021-07-26T02:32:56,42.805,6.029,CST-1368DR,5356,7415,14846,0.202,551
2021-07-26T02:35:58,42.805,6.029,CST-1368DR,5356,7415,14845,0.203,551
2021-07-26T02:38:59,42.805,6.029,CST-1368DR,5356,7415,14845,0.203,551
2021-07-26T02:42:01,42.805,6.029,CST-1368DR,5356,7413,14842,0.203,551
2021-07-26T02:45:02,42.805,6.029,CST-1368DR,5356,7414,14844,0.203,551
2021-07-26T02:48:04,42.805,6.029,CST-1368DR,5356,7414,14844,0.203,551
2021-07-26T02:51:05,42.805,6.029,CST-1368DR,5356,7415,14846,0.202,551
2021-07-26T02:54:07,42.805,6.029,CST-1368DR,5356,7414,14843,0.203,551
2021-07-26T02:57:09,42.805,6.029,CST-1368DR,5356,7414,14844,0.203,551
2021-07-26T03:00:10,42.805,6.029,CST-1368DR,5356,7405,14826,0.208,551
2021-07-26T03:03:12,42.805,6.029,CST-1368DR,5356,7413,14842,0.203,551
2021-07-26T03:06:13,42.805,6.029,CST-1368DR,5356,7415,14845,0.203,551
2021-07-26T03:09:15,42.805,6.029,CST-1368DR,5356,7414,14843,0.203,551
2021-07-26T03:12:16,42.805,6.029,CST-1368DR,5356,7414,14844,0.203,551
2021-07-26T03:15:18,42.805,6.029,CST-1368DR,5356,7415,14845,0.203,551
2021-07-26T03:18:20,42.805,6.029,CST-1368DR,5356,7415,14845,0.203,551
2021-07-26T03:21:21,42.805,6.029,CST-1368DR,5356,7413,14842,0.203,551
2021-07-26T03:24:23,42.805,6.029,CST-1368DR,5356,7412,14840,0.204,551
2021-07-26T03:27:24,42.805,6.029,CST-1368DR,5356,7413,14842,0.203,551
2021-07-26T03:30:26,42.805,6.029,CST-1368DR,5356,7414,14843,0.203,551
2021-07-26T03:33:28,42.805,6.029,CST-1368DR,5356,7414,14844,0.203,551
2021-07-26T03:36:29,42.805,6.029,CST-1368DR,5356,7414,14843,0.203,551
2021-07-26T03:39:31,42.805,6.029,CST-1368DR,5356,7413,14842,0.203,551
2021-07-26T03:42:32,42.805,6.029,CST-1368DR,5356,7413,14841,0.204,551
2021-07-26T03:45:34,42.805,6.029,CST-1368DR,5356,7413,14842,0.203,551
2021-07-26T03:48:35,42.805,6.029,CST-1368DR,5356,7412,14840,0.204,551
2021-07-26T03:51:37,42.805,6.029,CST-1368DR,5356,7414,14844,0.203,551
2021-07-26T03:54:39,42.805,6.029,CST-1368DR,5356,7413,14841,0.204,550
2021-07-26T03:57:40,42.805,6.029,CST-1368DR,5356,7414,14844,0.203,551
2021-07-26T04:00:42,42.805,6.029,CST-1368DR,5356,7413,14843,0.203,551
2021-07-26T04:03:43,42.805,6.029,CST-1368DR,5356,7414,14843,0.203,551
2021-07-26T04:06:45,42.805,6.029,CST-1368DR,5356,7415,14845,0.203,551
2021-07-26T04:09:47,42.805,6.029,CST-1368DR,5356,7415,14846,0.202,551
2021-07-26T04:12:48,42.805,6.029,CST-1368DR,5356,7413,14842,0.203,551
2021-07-26T04:15:50,42.805,6.029,CST-1368DR,5356,7413,14841,0.204,551
2021-07-26T04:18:51,42.805,6.029,CST-1368DR,5356,7414,14844,0.203,550
2021-07-26T04:21:53,42.805,6.029,CST-1368DR,5356,7414,14843,0.203,551
2021-07-26T04:24:54,42.805,6.029,CST-1368DR,5356,7414,14844,0.203,551
2021-07-26T04:27:56,42.805,6.029,CST-1368DR,5356,7414,14843,0.203,551
2021-07-26T04:30:58,42.805,6.029,CST-1368DR,5356,7413,14842,0.203,551
2021-07-26T04:33:59,42.805,6.029,CST-1368DR,5356,7414,14844,0.203,551
2021-07-26T04:37:01,42.805,6.029,CST-1368DR,5356,7415,14846,0.202,551
2021-07-26T04:40:02,42.805,6.029,CST-1368DR,5356,7415,14845,0.203,551
2021-07-26T04:43:04,42.805,6.029,CST-1368DR,5356,7411,14839,0.204,551
2021-07-26T04:46:05,42.805,6.029,CST-1368DR,5356,7412,14840,0.204,551
2021-07-26T04:49:07,42.805,6.029,CST-1368DR,5356,7413,14843,0.203,551
2021-07-26T04:52:09,42.805,6.029,CST-1368DR,5356,7413,14842,0.203,551
2021-07-26T04:55:10,42.805,6.029,CST-1368DR,5356,7415,14845,0.203,551
2021-07-26T04:58:12,42.805,6.029,CST-1368DR,5356,7414,14843,0.203,551
2021-07-26T05:01:13,42.805,6.029,CST-1368DR,5356,7414,14844,0.203,551
2021-07-26T05:04:15,42.805,6.029,CST-1368DR,5356,7414,14843,0.203,551
2021-07-26T05:07:17,42.805,6.029,CST-1368DR,5356,7414,14843,0.203,551
2021-07-26T05:10:18,42.805,6.029,CST-1368DR,5356,7415,14845,0.203,551
2021-07-26T05:13:20,42.805,6.029,CST-1368DR,5356,7413,14842,0.203,551
2021-07-26T05:16:21,42.805,6.029,CST-1368DR,5356,7413,14843,0.203,551
2021-07-26T05:19:23,42.805,6.029,CST-1368DR,5356,7414,14844,0.203,551
2021-07-26T05:22:24,42.805,6.029,CST-1368DR,5356,7413,14842,0.203,551
2021-07-26T05:25:26,42.805,6.029,CST-1368DR,5355,7405,14829,0.207,551
2021-07-26T05:28:28,42.805,6.029,CST-1368DR,5355,7413,14844,0.203,551
2021-07-26T05:31:29,42.805,6.029,CST-1368DR,5356,7413,14843,0.203,551
2021-07-26T05:34:31,42.805,6.029,CST-1368DR,5355,7413,14845,0.203,551
2021-07-26T05:37:32,42.805,6.029,CST-1368DR,5355,7412,14844,0.203,551
2021-07-26T05:40:34,42.805,6.029,CST-1368DR,5355,7413,14844,0.203,550
2021-07-26T05:43:36,42.805,6.029,CST-1368DR,5355,7413,14845,0.203,551
2021-07-26T05:46:37,42.805,6.029,CST-1368DR,5355,7413,14844,0.203,551
2021-07-26T05:49:39,42.805,6.029,CST-1368DR,5356,7414,14844,0.203,551
2021-07-26T05:52:40,42.805,6.029,CST-1368DR,5355,7414,14847,0.202,551
2021-07-26T05:55:42,42.805,6.029,CST-1368DR,5355,7414,14847,0.202,551
2021-07-26T05:58:43,42.805,6.029,CST-1368DR,5355,7410,14839,0.204,551
2021-07-26T06:01:45,42.805,6.029,CST-1368DR,5355,7413,14844,0.203,551
2021-07-26T06:04:47,42.805,6.029,CST-1368DR,5355,7413,14845,0.203,551
2021-07-26T06:07:48,42.805,6.029,CST-1368DR,5355,7413,14846,0.202,551
2021-07-26T06:10:50,42.805,6.029,CST-1368DR,5355,7414,14846,0.202,551
2021-07-26T06:13:51,42.805,6.029,CST-1368DR,5355,7413,14845,0.203,551
2021-07-26T06:16:53,42.805,6.029,CST-1368DR,5355,7413,14845,0.203,551
2021-07-26T06:19:54,42.805,6.029,CST-1368DR,5355,7413,14844,0.203,551
2021-07-26T06:22:56,42.805,6.029,CST-1368DR,5355,7413,14846,0.202,551
2021-07-26T06:25:58,42.805,6.029,CST-1368DR,5355,7413,14844,0.203,551
2021-07-26T06:28:59,42.805,6.029,CST-1368DR,5355,7413,14845,0.203,551
2021-07-26T06:32:01,42.805,6.029,CST-1368DR,5355,7413,14845,0.203,551
2021-07-26T06:35:02,42.805,6.029,CST-1368DR,5355,7414,14847,0.202,551
2021-07-26T06:38:04,42.805,6.029,CST-1368DR,5355,7411,14840,0.204,551
2021-07-26T06:41:06,42.805,6.029,CST-1368DR,5355,7413,14845,0.203,551
2021-07-26T06:44:07,42.805,6.029,CST-1368DR,5355,7413,14844,0.203,551
2021-07-26T06:47:09,42.805,6.029,CST-1368DR,5355,7409,14837,0.205,551
2021-07-26T06:50:10,42.805,6.029,CST-1368DR,5355,7412,14844,0.203,551
2021-07-26T06:53:12,42.805,6.029,CST-1368DR,5355,7413,14845,0.203,551
2021-07-26T06:56:13,42.805,6.029,CST-1368DR,5355,7413,14844,0.203,551
2021-07-26T06:59:15,42.805,6.029,CST-1368DR,5355,7414,14846,0.202,550
2021-07-26T07:02:17,42.805,6.029,CST-1368DR,5355,7413,14845,0.203,551
2021-07-26T07:05:18,42.805,6.029,CST-1368DR,5355,7412,14843,0.203,551
2021-07-26T07:08:20,42.805,6.029,CST-1368DR,5355,7413,14845,0.203,551
2021-07-26T07:11:21,42.805,6.029,CST-1368DR,5355,7413,14846,0.202,551
2021-07-26T07:14:23,42.805,6.029,CST-1368DR,5355,7413,14845,0.203,551
2021-07-26T07:17:25,42.805,6.029,CST-1368DR,5355,7413,14844,0.203,551
2021-07-26T07:20:26,42.805,6.029,CST-1368DR,5355,7413,14845,0.203,551
2021-07-26T07:23:28,42.805,6.029,CST-1368DR,5355,7413,14844,0.203,551
2021-07-26T07:26:29,42.805,6.029,CST-1368DR,5355,7411,14841,0.204,551
2021-07-26T07:29:31,42.805,6.029,CST-1368DR,5355,7409,14836,0.205,551
2021-07-26T07:32:32,42.805,6.029,CST-1368DR,5355,7413,14846,0.202,551
2021-07-26T07:35:34,42.805,6.029,CST-1368DR,5355,7413,14845,0.203,551
2021-07-26T07:38:36,42.805,6.029,CST-1368DR,5355,7413,14846,0.202,551
2021-07-26T07:41:37,42.805,6.029,CST-1368DR,5355,7413,14846,0.202,551
2021-07-26T07:44:39,42.805,6.029,CST-1368DR,5355,7413,14844,0.203,551
2021-07-26T07:47:40,42.805,6.029,CST-1368DR,5355,7413,14846,0.202,551
2021-07-26T07:50:42,42.805,6.029,CST-1368DR,5355,7413,14845,0.203,551
2021-07-26T07:53:43,42.805,6.029,CST-1368DR,5355,7413,14845,0.203,551
2021-07-26T07:56:45,42.805,6.029,CST-1368DR,5355,7414,14846,0.202,551
2021-07-26T07:59:47,42.805,6.029,CST-1368DR,5355,7413,14845,0.203,551
2021-07-26T08:02:48,42.805,6.029,CST-1368DR,5355,7413,14845,0.203,551
2021-07-26T08:05:50,42.805,6.029,CST-1368DR,5355,7413,14844,0.203,551
2021-07-26T08:08:51,42.805,6.029,CST-1368DR,5355,7412,14842,0.203,551
2021-07-26T08:11:53,42.805,6.029,CST-1368DR,5355,7413,14846,0.202,551
2021-07-26T08:14:55,42.805,6.029,CST-1368DR,5355,7414,14847,0.202,551
2021-07-26T08:17:56,42.805,6.029,CST-1368DR,5355,7414,14846,0.202,551
2021-07-26T08:20:58,42.805,6.029,CST-1368DR,5355,7413,14845,0.203,551
2021-07-26T08:23:59,42.805,6.029,CST-1368DR,5355,7413,14845,0.203,551
2021-07-26T08:27:01,42.805,6.029,CST-1368DR,5355,7413,14845,0.203,551
2021-07-26T08:30:02,42.805,6.029,CST-1368DR,5355,7412,14843,0.203,551
2021-07-26T08:33:04,42.805,6.029,CST-1368DR,5355,7414,14846,0.202,551
2021-07-26T08:36:06,42.805,6.029,CST-1368DR,5355,7411,14841,0.204,551
2021-07-26T08:39:07,42.805,6.029,CST-1368DR,5355,7411,14841,0.204,551
2021-07-26T08:42:09,42.805,6.029,CST-1368DR,5355,7413,14844,0.203,551
2021-07-26T08:45:10,42.805,6.029,CST-1368DR,5355,7412,14843,0.203,550
2021-07-26T08:48:12,42.805,6.029,CST-1368DR,5355,7408,14836,0.205,551
2021-07-26T08:51:14,42.805,6.029,CST-1368DR,5355,7412,14843,0.203,551
2021-07-26T08:54:15,42.805,6.029,CST-1368DR,5355,7413,14844,0.203,551
2021-07-26T08:57:17,42.805,6.029,CST-1368DR,5355,7413,14845,0.203,551
2021-07-26T09:00:18,42.805,6.029,CST-1368DR,5355,7413,14845,0.203,551
2021-07-26T09:03:20,42.805,6.029,CST-1368DR,5355,7412,14843,0.203,551
2021-07-26T09:06:21,42.805,6.029,CST-1368DR,5355,7412,14842,0.203,551
2021-07-26T09:09:23,42.805,6.029,CST-1368DR,5355,7413,14845,0.203,551
2021-07-26T09:12:25,42.805,6.029,CST-1368DR,5355,7412,14844,0.203,551
2021-07-26T09:15:26,42.805,6.029,CST-1368DR,5355,7412,14843,0.203,551
2021-07-26T09:18:28,42.805,6.029,CST-1368DR,5355,7412,14843,0.203,551
2021-07-26T09:21:29,42.805,6.029,CST-1368DR,5355,7412,14843,0.203,551
2021-07-26T09:24:31,42.805,6.029,CST-1368DR,5355,7413,14844,0.203,551
2021-07-26T09:27:32,42.805,6.029,CST-1368DR,5355,7412,14843,0.203,551
2021-07-26T09:30:34,42.805,6.029,CST-1368DR,5355,7413,14845,0.203,551
2021-07-26T09:33:36,42.805,6.029,CST-1368DR,5355,7412,14843,0.203,551
2021-07-26T09:36:37,42.805,6.029,CST-1368DR,5355,7412,14842,0.203,551
2021-07-26T09:39:39,42.805,6.029,CST-1368DR,5355,7411,14842,0.203,551
2021-07-26T09:42:40,42.805,6.029,CST-1368DR,5355,7408,14835,0.205,551
2021-07-26T09:45:42,42.805,6.029,CST-1368DR,5355,7412,14843,0.203,551
2021-07-26T09:48:44,42.805,6.029,CST-1368DR,5355,7413,14844,0.203,551
2021-07-26T09:51:45,42.805,6.029,CST-1368DR,5355,7412,14842,0.203,551
2021-07-26T09:54:47,42.805,6.029,CST-1368DR,5355,7412,14843,0.203,551
2021-07-26T09:57:48,42.805,6.029,CST-1368DR,5355,7413,14844,0.203,551
2021-07-26T10:00:50,42.805,6.029,CST-1368DR,5355,7412,14843,0.203,551
2021-07-26T10:03:51,42.805,6.029,CST-1368DR,5355,7411,14840,0.204,551
2021-07-26T10:06:53,42.805,6.029,CST-1368DR,5355,7412,14843,0.203,551
2021-07-26T10:09:55,42.805,6.029,CST-1368DR,5355,7411,14841,0.204,551
2021-07-26T10:12:56,42.805,6.029,CST-1368DR,5355,7412,14842,0.203,551
2021-07-26T10:15:58,42.805,6.029,CST-1368DR,5355,7409,14837,0.205,551
2021-07-26T10:18:59,42.805,6.029,CST-1368DR,5355,7412,14842,0.203,551
2021-07-26T10:22:01,42.805,6.029,CST-1368DR,5355,7411,14840,0.204,551
2021-07-26T10:25:02,42.805,6.029,CST-1368DR,5355,7412,14842,0.203,551
2021-07-26T10:28:04,42.805,6.029,CST-1368DR,5355,7411,14841,0.204,551
2021-07-26T10:31:06,42.805,6.029,CST-1368DR,5355,7411,14841,0.204,551
2021-07-26T10:34:07,42.805,6.029,CST-1368DR,5355,7411,14840,0.204,551
2021-07-26T10:37:09,42.805,6.029,CST-1368DR,5355,7411,14842,0.203,551
2021-07-26T10:40:10,42.805,6.029,CST-1368DR,5355,7412,14842,0.203,551
2021-07-26T10:43:12,42.805,6.029,CST-1368DR,5355,7411,14842,0.203,551
2021-07-26T10:46:14,42.805,6.029,CST-1368DR,5355,7412,14843,0.203,551
2021-07-26T10:49:15,42.805,6.029,CST-1368DR,5355,7411,14840,0.204,551
2021-07-26T10:52:17,42.805,6.029,CST-1368DR,5355,7403,14826,0.208,551
2021-07-26T10:55:18,42.805,6.029,CST-1368DR,5355,7412,14843,0.203,551
2021-07-26T10:58:20,42.805,6.029,CST-1368DR,5355,7411,14840,0.204,551
2021-07-26T11:01:21,42.805,6.029,CST-1368DR,5355,7409,14838,0.204,551
2021-07-26T11:04:23,42.805,6.029,CST-1368DR,5355,7411,14841,0.204,551
2021-07-26T11:07:25,42.805,6.029,CST-1368DR,5355,7411,14841,0.204,551
2021-07-26T11:10:26,42.805,6.029,CST-1368DR,5355,7410,14839,0.204,551
2021-07-26T11:13:28,42.805,6.029,CST-1368DR,5355,7411,14841,0.204,551
2021-07-26T11:16:29,42.805,6.029,CST-1368DR,5355,7411,14842,0.203,551
2021-07-26T11:19:31,42.805,6.029,CST-1368DR,5355,7411,14842,0.203,551
2021-07-26T11:22:33,42.805,6.029,CST-1368DR,5355,7410,14839,0.204,551
2021-07-26T11:25:34,42.805,6.029,CST-1368DR,5355,7409,14837,0.205,551
2021-07-26T11:28:36,42.805,6.029,CST-1368DR,5355,7410,14840,0.204,551
2021-07-26T11:31:37,42.805,6.029,CST-1368DR,5355,7412,14842,0.203,551
2021-07-26T11:34:39,42.805,6.029,CST-1368DR,5355,7410,14838,0.204,551
2021-07-26T11:37:40,42.805,6.029,CST-1368DR,5355,7407,14833,0.206,551
2021-07-26T11:40:42,42.805,6.029,CST-1368DR,5355,7407,14833,0.206,551
2021-07-26T11:43:44,42.805,6.029,CST-1368DR,5355,7411,14841,0.204,551
2021-07-26T11:46:45,42.805,6.029,CST-1368DR,5355,7408,14835,0.205,551
2021-07-26T11:49:47,42.805,6.029,CST-1368DR,5355,7409,14836,0.205,551
2021-07-26T11:52:48,42.805,6.029,CST-1368DR,5355,7410,14840,0.204,551
2021-07-26T11:55:50,42.805,6.029,CST-1368DR,5355,7411,14842,0.203,551
2021-07-26T11:58:51,42.805,6.029,CST-1368DR,5355,7409,14837,0.205,551
2021-07-26T12:01:53,42.805,6.029,CST-1368DR,5355,7409,14837,0.205,551
2021-07-26T12:04:55,42.805,6.029,CST-1368DR,5355,7410,14840,0.204,551
2021-07-26T12:07:56,42.805,6.029,CST-1368DR,5355,7410,14839,0.204,551
2021-07-26T12:10:58,42.805,6.029,CST-1368DR,5355,7410,14839,0.204,551
2021-07-26T12:13:59,42.805,6.029,CST-1368DR,5355,7410,14838,0.204,551
2021-07-26T12:17:01,42.805,6.029,CST-1368DR,5355,7411,14842,0.203,551
2021-07-26T12:20:03,42.805,6.029,CST-1368DR,5355,7410,14839,0.204,551
2021-07-26T12:23:04,42.805,6.029,CST-1368DR,5355,7410,14839,0.204,551
2021-07-26T12:26:06,42.805,6.029,CST-1368DR,5355,7409,14837,0.205,550
2021-07-26T12:29:07,42.805,6.029,CST-1368DR,5355,7410,14838,0.204,551
2021-07-26T12:32:09,42.805,6.029,CST-1368DR,5355,7410,14839,0.204,551
2021-07-26T12:35:10,42.805,6.029,CST-1368DR,5355,7407,14834,0.205,551
2021-07-26T12:38:12,42.805,6.029,CST-1368DR,5355,7408,14836,0.205,551
2021-07-26T12:41:14,42.805,6.029,CST-1368DR,5355,7409,14837,0.205,551
2021-07-26T12:44:15,42.805,6.029,CST-1368DR,5355,7410,14839,0.204,551
2021-07-26T12:47:17,42.805,6.029,CST-1368DR,5355,7409,14837,0.205,551
2021-07-26T12:50:18,42.805,6.029,CST-1368DR,5354,7410,14842,0.203,551
2021-07-26T12:53:20,42.805,6.029,CST-1368DR,5355,7411,14840,0.204,551
2021-07-26T12:56:22,42.805,6.029,CST-1368DR,5355,7411,14841,0.204,550
2021-07-26T12:59:23,42.805,6.029,CST-1368DR,5355,7409,14838,0.204,551
2021-07-26T13:02:25,42.805,6.029,CST-1368DR,5355,7409,14838,0.204,551
2021-07-26T13:05:26,42.805,6.029,CST-1368DR,5355,7409,14836,0.205,551
2021-07-26T13:08:28,42.805,6.029,CST-1368DR,5355,7409,14838,0.204,551
2021-07-26T13:11:29,42.805,6.029,CST-1368DR,5354,7409,14839,0.204,551
2021-07-26T13:14:31,42.805,6.029,CST-1368DR,5355,7409,14837,0.205,551
2021-07-26T13:17:33,42.805,6.029,CST-1368DR,5354,7410,14841,0.204,551
2021-07-26T13:20:34,42.805,6.029,CST-1368DR,5354,7409,14840,0.204,551
2021-07-26T13:23:36,42.805,6.029,CST-1368DR,5354,7407,14836,0.205,551
2021-07-26T13:26:37,42.805,6.029,CST-1368DR,5354,7409,14840,0.204,551
2021-07-26T13:29:39,42.805,6.029,CST-1368DR,5354,7410,14842,0.203,551
2021-07-26T13:32:41,42.805,6.029,CST-1368DR,5354,7409,14840,0.204,551
2021-07-26T13:35:42,42.805,6.029,CST-1368DR,5354,7406,14833,0.206,551
2021-07-26T13:38:44,42.805,6.029,CST-1368DR,5354,7408,14838,0.204,551
2021-07-26T13:41:45,42.805,6.029,CST-1368DR,5354,7409,14839,0.204,551
2021-07-26T13:44:47,42.805,6.029,CST-1368DR,5354,7407,14835,0.205,551
2021-07-26T13:47:48,42.805,6.029,CST-1368DR,5355,7409,14838,0.204,551
2021-07-26T13:50:50,42.805,6.029,CST-1368DR,5355,7407,14834,0.205,551
2021-07-26T13:53:52,42.805,6.029,CST-1368DR,5354,7407,14836,0.205,550
2021-07-26T13:56:53,42.805,6.029,CST-1368DR,5355,7409,14838,0.204,551
2021-07-26T13:59:55,42.805,6.029,CST-1368DR,5354,7410,14841,0.204,551
2021-07-26T14:02:56,42.805,6.029,CST-1368DR,5354,7409,14839,0.204,551
2021-07-26T14:05:58,42.805,6.029,CST-1368DR,5355,7409,14837,0.205,551
2021-07-26T14:08:59,42.805,6.029,CST-1368DR,5354,7410,14841,0.204,551
2021-07-26T14:12:01,42.805,6.029,CST-1368DR,5354,7410,14842,0.203,551
2021-07-26T14:15:03,42.805,6.029,CST-1368DR,5354,7409,14840,0.204,551
2021-07-26T14:18:04,42.805,6.029,CST-1368DR,5354,7408,14838,0.204,551
2021-07-26T14:21:06,42.805,6.029,CST-1368DR,5354,7410,14841,0.204,551
2021-07-26T14:24:07,42.805,6.029,CST-1368DR,5354,7410,14841,0.204,551
2021-07-26T14:27:09,42.805,6.029,CST-1368DR,5354,7409,14840,0.204,551
2021-07-26T14:30:11,42.805,6.029,CST-1368DR,5354,7408,14838,0.204,551
2021-07-26T14:33:12,42.805,6.029,CST-1368DR,5354,7409,14840,0.204,551
2021-07-26T14:36:14,42.805,6.029,CST-1368DR,5354,7408,14837,0.205,551
2021-07-26T14:39:15,42.805,6.029,CST-1368DR,5354,7410,14841,0.204,551
2021-07-26T14:42:17,42.805,6.029,CST-1368DR,5354,7408,14838,0.204,551
2021-07-26T14:45:18,42.805,6.029,CST-1368DR,5354,7410,14841,0.204,551
2021-07-26T14:48:20,42.805,6.029,CST-1368DR,5354,7407,14836,0.205,551
2021-07-26T14:51:22,42.805,6.029,CST-1368DR,5354,7409,14839,0.204,551
2021-07-26T14:54:23,42.805,6.029,CST-1368DR,5354,7409,14840,0.204,551
2021-07-26T14:57:25,42.805,6.029,CST-1368DR,5354,7407,14836,0.205,551
2021-07-26T15:00:26,42.805,6.029,CST-1368DR,5354,7407,14835,0.205,551
2021-07-26T15:03:28,42.805,6.029,CST-1368DR,5354,7408,14838,0.204,551
2021-07-26T15:06:30,42.805,6.029,CST-1368DR,5354,7409,14839,0.204,551
2021-07-26T15:09:31,42.805,6.029,CST-1368DR,5354,7409,14840,0.204,551
2021-07-26T15:12:33,42.805,6.029,CST-1368DR,5354,7408,14838,0.204,551
2021-07-26T15:15:34,42.805,6.029,CST-1368DR,5354,7407,14836,0.205,551
2021-07-26T15:18:36,42.805,6.029,CST-1368DR,5354,7402,14826,0.208,551
2021-07-26T15:21:37,42.805,6.029,CST-1368DR,5354,7403,14827,0.207,551
2021-07-26T15:24:39,42.805,6.029,CST-1368DR,5354,7409,14839,0.204,551
2021-07-26T15:27:41,42.805,6.029,CST-1368DR,5354,7408,14837,0.205,551
2021-07-26T15:30:42,42.805,6.029,CST-1368DR,5354,7408,14838,0.204,551
2021-07-26T15:33:44,42.805,6.029,CST-1368DR,5354,7408,14838,0.204,551
2021-07-26T15:36:45,42.805,6.029,CST-1368DR,5354,7406,14834,0.205,551
2021-07-26T15:39:47,42.805,6.029,CST-1368DR,5354,7408,14838,0.204,551
2021-07-26T15:42:48,42.805,6.029,CST-1368DR,5354,7408,14838,0.204,551
2021-07-26T15:45:50,42.805,6.029,CST-1368DR,5354,7408,14838,0.204,551
2021-07-26T15:48:52,42.805,6.029,CST-1368DR,5354,7409,14840,0.204,551
2021-07-26T15:51:53,42.805,6.029,CST-1368DR,5354,7408,14837,0.205,551
2021-07-26T15:54:55,42.805,6.029,CST-1368DR,5354,7407,14836,0.205,551
2021-07-26T15:57:56,42.805,6.029,CST-1368DR,5354,7409,14839,0.204,551
2021-07-26T16:00:58,42.805,6.029,CST-1368DR,5354,7406,14834,0.205,551
2021-07-26T16:04:00,42.805,6.029,CST-1368DR,5354,7408,14838,0.204,551
2021-07-26T16:07:01,42.805,6.029,CST-1368DR,5354,7408,14838,0.204,551
2021-07-26T16:10:03,42.805,6.029,CST-1368DR,5354,7408,14838,0.204,551
2021-07-26T16:13:04,42.805,6.029,CST-1368DR,5354,7408,14837,0.205,551
2021-07-26T16:16:06,42.805,6.029,CST-1368DR,5354,7404,14829,0.207,551
2021-07-26T16:19:07,42.805,6.029,CST-1368DR,5354,7408,14838,0.204,551
2021-07-26T16:22:09,42.805,6.029,CST-1368DR,5354,7407,14835,0.205,551
2021-07-26T16:25:11,42.805,6.029,CST-1368DR,5354,7408,14838,0.204,551
2021-07-26T16:28:12,42.805,6.029,CST-1368DR,5354,7408,14837,0.205,551
2021-07-26T16:31:14,42.805,6.029,CST-1368DR,5354,7407,14836,0.205,551
2021-07-26T16:34:15,42.805,6.029,CST-1368DR,5354,7407,14836,0.205,551
2021-07-26T16:37:17,42.805,6.029,CST-1368DR,5354,7408,14838,0.204,551
2021-07-26T16:40:19,42.805,6.029,CST-1368DR,5354,7408,14837,0.205,551
2021-07-26T16:43:20,42.805,6.029,CST-1368DR,5354,7406,14833,0.206,551
2021-07-26T16:46:22,42.805,6.029,CST-1368DR,5354,7408,14838,0.204,551
2021-07-26T16:49:23,42.805,6.029,CST-1368DR,5354,7408,14838,0.204,551
2021-07-26T16:52:25,42.805,6.029,CST-1368DR,5354,7409,14839,0.204,551